Weather History for Rayong, Thailand

Change the Weather History Date:

Saturday, March 9, 2013

  Actual Average Record
Temperature  
Mean Temperature 84 °F -  
Max Temperature 89 °F 88 °F 98 °F (1998)
Min Temperature 78 °F 77 °F 73 °F (2005)
Cooling Degree Days 18    
Growing Degree Days 34 (Base 50)    
Moisture  
Dew Point 73 °F    
Average Humidity 72    
Maximum Humidity 79    
Minimum Humidity 55    
Precipitation  
Precipitation 0.00 in - - ()
Sea Level Pressure  
Sea Level Pressure 29.86 in    
Wind  
Wind Speed 7 mph ()    
Max Wind Speed 12 mph    
Max Gust Speed -    
Visibility 1.8 miles    
Events      
Averages and records for this station are not official NWS values.
T = Trace of Precipitation, MM = Missing Value Source: Averaged Metar Reports

Daily Weather History Graph

Daily Weather History Graph

Search for Another Location

Airport:

Trip Planner

Search our weather history database for the weather conditions in past years. The results will help you decide how hot, cold, wet, or windy it might be!

Date:

Astronomy

Mar. 09, 2013 Rise Set
Actual Time 6:27 AM ICT 6:25 PM ICT
Civil Twilight 6:06 AM ICT 6:47 PM ICT
Nautical Twilight 5:41 AM ICT 7:11 PM ICT
Astronomical Twilight 5:16 AM ICT 7:36 PM ICT
Moon 4:08 AM ICT (3/9) 4:11 PM ICT (3/9)
Length of Visible Light 12h 41m
Length of Day
11h 58m
Waning Crescent, 8% of the Moon is Illuminated
Mar 9
Waning Crescent
Mar 12
New
Mar 20
First Quarter
Mar 27
Full
Apr 3
Last Quarter

Hourly Weather History & Observations

Time (ICT) Temp. Heat Index Dew Point Humidity Pressure Visibility Wind Dir Wind Speed Gust Speed Precip Events Conditions
12:00 AM 80.6 °F 85.4 °F 73.4 °F 79% 29.89 in 1.9 mi SSW 4.6 mph - N/A   Scattered Clouds
2:30 AM 80.6 °F 85.4 °F 73.4 °F 79% 29.86 in 1.9 mi South 6.9 mph - N/A   Scattered Clouds
3:00 AM 80.6 °F 85.4 °F 73.4 °F 79% 29.83 in 1.9 mi SSW 6.9 mph - N/A   Scattered Clouds
4:30 AM 80.6 °F 85.4 °F 73.4 °F 79% 29.83 in 1.9 mi SSW 3.5 mph - N/A   Scattered Clouds
5:00 AM 80.6 °F 85.4 °F 73.4 °F 79% 29.83 in 1.9 mi SSW 9.2 mph - N/A   Scattered Clouds
6:00 AM 80.6 °F 85.4 °F 73.4 °F 79% 29.86 in 1.9 mi SW 9.2 mph - N/A   Scattered Clouds
6:30 AM 80.6 °F 85.4 °F 73.4 °F 79% 29.86 in 1.9 mi SSW 4.6 mph - N/A   Scattered Clouds
7:00 AM 80.6 °F 85.4 °F 73.4 °F 79% 29.89 in 1.9 mi SSW 5.8 mph - N/A   Mostly Cloudy
7:30 AM 80.6 °F 85.4 °F 73.4 °F 79% 29.89 in 1.9 mi SSW 6.9 mph - N/A   Mostly Cloudy
8:00 AM 82.4 °F 88.2 °F 73.4 °F 74% 29.89 in 1.9 mi South 6.9 mph - N/A   Mostly Cloudy
8:30 AM 84.2 °F 90.9 °F 73.4 °F 70% 29.92 in 1.9 mi SSW 6.9 mph - N/A   Mostly Cloudy
9:00 AM 86.0 °F 93.4 °F 73.4 °F 66% 29.92 in 1.9 mi SSW 6.9 mph - N/A   Mostly Cloudy
9:30 AM 87.8 °F 95.6 °F 73.4 °F 62% 29.92 in 1.9 mi SSW 6.9 mph - N/A   Haze
10:00 AM 87.8 °F 95.6 °F 73.4 °F 62% 29.92 in 1.9 mi South 6.9 mph - N/A   Haze
10:30 AM 87.8 °F 95.6 °F 73.4 °F 62% 29.92 in 1.9 mi South 6.9 mph - N/A   Haze
11:00 AM 89.6 °F 98.2 °F 73.4 °F 59% 29.92 in 1.9 mi South 9.2 mph - N/A   Haze
11:30 AM 89.6 °F 96.2 °F 71.6 °F 55% 29.92 in 1.9 mi South 9.2 mph - N/A   Haze
12:00 PM 87.8 °F 95.6 °F 73.4 °F 62% 29.89 in 1.9 mi SSW 9.2 mph - N/A   Haze
12:30 PM 80.6 °F 83.2 °F 68.0 °F 65% 29.89 in 1.2 mi North 9.2 mph - N/A   Mostly Cloudy
1:00 PM 78.8 °F - 68.0 °F 69% 29.89 in 1.2 mi North 11.5 mph - N/A   Mostly Cloudy
1:30 PM 78.8 °F - 68.0 °F 69% 29.86 in 1.2 mi NNE 6.9 mph - N/A   Mostly Cloudy
2:00 PM 78.8 °F - 69.8 °F 74% 29.86 in 1.2 mi WSW 6.9 mph - N/A   Mostly Cloudy
2:30 PM 80.6 °F 84.6 °F 71.6 °F 74% 29.83 in 1.2 mi South 6.9 mph - N/A   Mostly Cloudy
3:00 PM 82.4 °F 86.3 °F 69.8 °F 66% 29.83 in 1.2 mi SW 6.9 mph - N/A   Mostly Cloudy
3:30 PM 86.0 °F 93.4 °F 73.4 °F 66% 29.80 in 1.2 mi South 6.9 mph - N/A   Mostly Cloudy
4:00 PM 86.0 °F 95.1 °F 75.2 °F 70% 29.80 in 1.2 mi SSW 9.2 mph - N/A   Mostly Cloudy
4:30 PM 84.2 °F 90.9 °F 73.4 °F 70% 29.80 in 1.9 mi South 6.9 mph - N/A   Mostly Cloudy
5:00 PM 84.2 °F 90.9 °F 73.4 °F 70% 29.80 in 1.9 mi South 9.2 mph - N/A   Mostly Cloudy
5:30 PM 84.2 °F 90.9 °F 73.4 °F 70% 29.83 in 1.9 mi South 9.2 mph - N/A   Mostly Cloudy
6:00 PM 84.2 °F 90.9 °F 73.4 °F 70% 29.83 in 1.9 mi SSW 11.5 mph - N/A   Mostly Cloudy
6:30 PM 82.4 °F 88.2 °F 73.4 °F 74% 29.83 in 1.9 mi South 9.2 mph - N/A   Mostly Cloudy
7:00 PM 82.4 °F 88.2 °F 73.4 °F 74% 29.83 in 1.9 mi SSW 6.9 mph - N/A   Mostly Cloudy
7:30 PM 82.4 °F 88.2 °F 73.4 °F 74% 29.83 in 1.9 mi South 6.9 mph - N/A   Mostly Cloudy
8:00 PM 82.4 °F 88.2 °F 73.4 °F 74% 29.86 in 1.9 mi South 6.9 mph - N/A   Mostly Cloudy
8:30 PM 82.4 °F 88.2 °F 73.4 °F 74% 29.86 in 1.9 mi South 9.2 mph - N/A   Mostly Cloudy
9:00 PM 82.4 °F 88.2 °F 73.4 °F 74% 29.86 in 1.9 mi South 11.5 mph - N/A   Mostly Cloudy
9:30 PM 82.4 °F 89.5 °F 75.2 °F 79% 29.86 in 1.9 mi South 6.9 mph - N/A   Mostly Cloudy
10:00 PM 82.4 °F 89.5 °F 75.2 °F 79% 29.86 in 1.9 mi SSW 6.9 mph - N/A   Mostly Cloudy
10:30 PM 82.4 °F 89.5 °F 75.2 °F 79% 29.86 in 1.9 mi SSW 6.9 mph - N/A   Mostly Cloudy
11:00 PM 82.4 °F 89.5 °F 75.2 °F 79% 29.86 in 1.9 mi SSW 4.6 mph - N/A   Mostly Cloudy
11:30 PM 82.4 °F 88.2 °F 73.4 °F 74% 29.86 in 1.9 mi South 4.6 mph - N/A   Mostly Cloudy